Weather in Blagodatnoye

Russia / Kursk Oblast     51°31′30″N   34°52′22″E
temp.,
°C
wind,
m/s
gust,
m/s
humid.,
%
clouds,
%
prec.,
mm/h
press.,
hPa
HPBL,
m
25 february, thu
thu2500:00−4sw3796100 0.1 1031220
03:00−2sw4798100 0.2 1030243
06:00−1wsw4798100 0.0 1028309
09:00+1wsw51099100 0.0 1027298
12:00+2wsw511100100 0.1 1025227
15:00+2w513100100 0.1 1024303
18:00+2w49100100 0.0 1023173
21:00+2w49100100 0.1 1023173
26 february, fri
fri2600:00+2wnw412100100 0.0 1023287
03:00+2wnw49100100 0.0 1023177
06:00+2w49100100 0.0 1022199
09:00+2wsw511100100 0.0 1020261
12:00+3wsw714100100 0.0 1018378
15:00+2w612100100 0.0 1017376
18:00+2wnw51298100 0.0 1015343
21:00+2w41297100 0.0 1015372
27 february, sat
sat2700:00+2w51296100 0.0 1013440
03:00+1w41095100 0.0 1012355
06:00+1w51197100 0.1 1011493
09:00+1w51197100 0.1 1010535
12:00+1wnw51198100 0.2 1009503
15:00+1wnw51099100 0.3 1010537
18:00+1wnw51098100 0.1 1009466
21:00+1nnw51097100 0.2 1011518
28 february, sun
sun2800:000nnw51097100 0.1 1012486
03:000nnw61192100 0.2 1015672
06:00−1n51190100 0.3 1016849
09:00−1n7118397 0.3 1018885
12:00−1n6108295 0.0 1020864
15:000n468693 0.1 1021684
18:00−1nnw5885100 0.1 1022627
21:00−1nw489197 0.2 1023414
1 march, mon
mon100:00−1n4794100 0.1 1025439
03:00−3n2492100 0.2 1026206
06:00−4nne249179 0.0 1027134
09:00−4nne238875 0.0 1029185
12:00−2n247676 0.0 1031711
15:000nnw237384 0.0 1031821
18:00−1w237958 0.0 103156
21:00−2w338338 0.0 103286